Home > Weather > Huntington Beach > Past weeks

Flag for USA Past Weather in Huntington Beach, California, USA — Yesterday and Last 2 Weeks

Now
68 °F

Clear.


Feels Like: 68 °F
Forecast: 65 / 80 °F
Wind: 3 mph from West

Location: John Wayne Airport-Orange County Airport

Current Time: Aug 28, 2016 at 12:11:26 AM

Latest Report: Aug 27, 2016 at 10:53 PM


Visibility: 10 mi

Pressure: 29.98 "Hg

Humidity: 78%

Dew Point: 61 °F

Location of Huntington BeachLocation

Past Weather in Huntington Beach — Graph

°F

Huntington Beach Temperature Yesterday

Maximum temperature yesterday: 76 °F (at 2:53 PM)
Minimum temperature yesterday: 66 °F (at 12:53 AM)
Average temperature yesterday: 70 °F

High & Low Weather Summary for the Past Weeks

 TemperatureHumidityPressure
High90 °F (Aug 15, 1:53 PM)100% (Aug 14, 1:53 PM)30.04 "Hg (Aug 14, 1:53 PM)
Low-4 °F (Aug 15, 4:53 AM)35% (Aug 15, 1:53 PM)29.79 "Hg (Aug 17, 6:53 PM)
Average70 °F72%29.90 "Hg
* Reported Aug 12 10:53 PM — Aug 27 10:53 PM, Huntington Beach, Weather by CustomWeather, © 2016

Note: Actual official high and low records may vary slightly from our data, if they occured in-between our weather recording intervals... More about our weather records

Advertising

Huntington Beach Weather History for the Previous 24 Hours

Scroll right to see more
 ConditionsComfort  
Time TempWeatherWind HumidityBarometerVisibility
10:53 PM
Sat, Aug 27
68 °FClear.3 mph78%29.98 "Hg10 mi
9:53 PM68 °FClear.5 mph78%29.97 "Hg10 mi
8:53 PM68 °FClear.6 mph76%29.96 "Hg10 mi
7:53 PM69 °FSunny.6 mph70%29.94 "Hg10 mi
6:53 PM71 °FSunny.7 mph66%29.93 "Hg10 mi
5:53 PM72 °FPassing clouds.7 mph61%29.93 "Hg10 mi
4:53 PM74 °FPassing clouds.7 mph57%29.93 "Hg10 mi
3:53 PM75 °FPassing clouds.9 mph55%29.93 "Hg10 mi
2:53 PM76 °FPassing clouds.8 mph54%29.94 "Hg10 mi
1:53 PM75 °FPassing clouds.9 mph55%29.96 "Hg10 mi
12:53 PM74 °FPassing clouds.N/A57%29.98 "Hg10 mi
11:53 AM73 °FScattered clouds.5 mph57%29.99 "Hg10 mi
10:53 AM70 °FOvercast.No wind64%30.01 "Hg10 mi
9:53 AM68 °FOvercast.5 mph68%30.00 "Hg10 mi
8:53 AM67 °FOvercast.6 mph71%29.99 "Hg10 mi
7:53 AM67 °FOvercast.3 mph71%29.98 "Hg10 mi
6:53 AM67 °FOvercast.No wind73%29.97 "Hg10 mi
5:53 AM67 °FOvercast.5 mph71%29.96 "Hg10 mi
4:53 AM66 °FOvercast.No wind75%29.95 "Hg10 mi
3:53 AM66 °FOvercast.5 mph75%29.95 "Hg10 mi
2:53 AM67 °FOvercast.3 mph73%29.95 "Hg10 mi
1:53 AM67 °FOvercast.5 mph71%29.95 "Hg10 mi
12:53 AM66 °FOvercast.No wind75%29.96 "Hg10 mi
Weather by CustomWeather, © 2016

See weather overviewHow to use our weather pages